TELEOS-1

Last updated on Mon Oct 14 2024 00:02:24 GMT+0000 (Coordinated Universal Time)

1 41169U 15077D 24287.54478077 .00054305 00000+0 12873-2 0 9995 2 41169 14.9793 357.1690 0006254 141.6680 218.4089 15.39825043489069
UTC large
Height (km)
Speed (km/s)
/
Latitude / Longitude
Inclination (degrees)
Orbital Period (minutes)
Azimuth
Elevation
Range (km)
Doppler Factor

Next 0 passes for location: London (51.5072 / 0.1276)

Sorry there are no passes over London.